Location: Alto Pass Reservoir
(37.5801°N, 89.3084°W)
Time: 04:08:45
(UTC+00:00)

Cosmos 1666 - Pass Details

Date: 07 July 2022
Orbit: 490 x 510 km, 82.5° (Epoch: 16 August)

Event Time Altitude Azimuth Distance (km) Brightness Sun altitude
Exits shadow 07:35:11 11° 98° (E) 1,612 5.3 -26.0°
Maximum altitude 07:35:53 12° 87° (E) 1,581 5.4 -25.9°
Drops below altitude 10° 07:37:21 10° 63° (ENE) 1,704 5.9 -25.8°
Sets 07:40:37 0° 32° (NNE) 2,588 7.6 -25.5°
